DMSP 5D-2 F13 DEB, 40508

Orbit data source: Space-Track

DMSP 5D-2 F13 DEB, 40508 is space debris in SSO originally from a launch on Fri, 24 Mar 1995 UTC launched from the Air Force Western Test Range (AFWTR). Debris objects in space refer to the collection of defunct objects orbiting the Earth. Examples of debris include non-operational satellites, rocket bodies, and fragments generated from explosions, collisions, or faulty payload assembly.

Loading next visibility...
Identifier
40508, 1995-015CU
Orbit
SSO
Country
Flag of USUS
Related business
Manufacturer
Unknown
Mission
Spacecraft
Bus & Motor
Unknown
Mass
Unknown
Launch date (UTC)
1995-03-24 (31 years ago)
Launch vehicle
Unknown
Launch site
Air Force Western Test Range (AFWTR)
Object type
Payload
Rocket body
Debris
Shape & HBR
Unknown shape, 0.1 m
Radar Cross Section
Medium (>0.1 m² and <1 m²)

Expand to show TLE details & history
Last TLE update: 3 days ago

TLE from 3 days ago
0 DMSP 5D-2 F13 DEB
1 40508U 95015CU  26169.77855285  .00002538  00000-0  11531-2 0  9999
2 40508  99.0220 190.7819 0048939 111.5536 249.0867 14.22090749578094
Epoch: 2026-06-18T18:41Z
TLE epoch observation values (Epoch: 2026-06-18T18:41:06.966Z)
Latitude
0.00004°
Longitude
3.48587°
Altitude
833.922 km
Speed
7.429 km/s
True Right ascension
12h 43m 07s
True Declination
0° 00' 00"
Sunlit
Object was in daylight at epoch
Visualization orbit readout
Latitude
Unknown
Longitude
Unknown
Altitude
Unknown
Speed
Unknown
Apparent Right ascension
Unknown
Apparent Declination
Unknown
Sunlit
N/A
Visualization observer readout
Local Sidereal Time
15:02:02
Azimuth
Unknown
Elevation
Unknown
Doppler factor
Unknown
Orbital elements
Apogee altitude
850.666 km
Perigee altitude
780.257 km
Semi-major axis
7,193.599 km
Eccentricity
0.00489
Inclination
99.022°
RAAN
190.7819°
Arg. of periapsis
111.5536°
True anomaly
248.56399°
Mean anomaly
249.0867°
Eccentric anomaly
248.82523°
Mean motion
3.55733 °/min
Orbital period
101.2 mins
BSTAR
0.0011531
Loading maneuver chart data...
Computing Atmospheric mass density...

Documentation

Showing up to 5 results
|